Location: Cactus School
(34.5700°N, 118.0931°W)
Time: 09:04:11
(UTC-07:00)

S-56A Canister/Altair - Pass Details

Date: 22 April 2024
Orbit: 638 x 2488 km, 38.9° (Epoch: 29 May)

Event Time Altitude Azimuth Distance (km) Brightness Sun altitude
Rises 18:38:21 0° 275° (W) 3,176 13.1 9.6°
Reaches altitude 10° 18:40:30 10° 279° (W) 2,380 15.1 9.2°
Maximum altitude 18:45:59 60° 0° (N) 1,142 8.6 8.1°
Drops below altitude 10° 18:54:07 10° 80° (E) 3,475 10.3 6.5°
Sets 18:57:51 0° 84° (E) 4,768 11.0 5.7°
